Location: Medlow Airstrip Trail, Medlow Bath NSW 2780, Australia
(33.6682°S, 150.3233°E)
Time: 15:36:40
(UTC+11:00)

Explorer 11/Cluster Stage 4 - Pass Details

Date: 24 September 2019
Orbit: 467 x 1259 km, 28.8° (Epoch: 22 October)

Event Time Altitude Azimuth Distance (km) Brightness Sun altitude
Rises 14:36:31 0° 275° (W) 3,802 10.8 38.9°
Reaches altitude 10° 14:39:58 10° 291° (WNW) 2,972 10.8 38.3°
Maximum altitude 14:45:02 20° 334° (NNW) 2,461 10.2 37.4°
Drops below altitude 10° 14:50:27 10° 16° (NNE) 3,201 9.9 36.4°
Sets 14:54:22 0° 31° (NNE) 4,191 10.3 35.7°
